Flag for Kazakhstan Weather past 2 weeks in Shymkent, Kazakhstan

Now
81 °F

Clear.


Feels Like: 79 °F
Forecast: 62 / 95 °F
Wind: 6 mph from Northeast

Location: Shymkent Airport

Current Time: Aug 27, 2014 at 9:56:34 PM

Latest Report: Aug 27, 2014 at 9:30 PM


Visibility: 10 mi

Pressure: 29.83 "Hg

Humidity: 18%

Dew point: 34 °F

Location of ShymkentLocation

Historic Weather in Shymkent — Graph

°F

Shymkent temperature yesterday

Maximum temperature yesterday: 91 °F (at 1:00 PM)
Minimum temperature yesterday: 68 °F (at 4:00 AM)
Average temperature yesterday: 81 °F

Past Weeks' High & Low Weather Summary

 TemperatureHumidityPressure
High104 °F (Aug 23, 4:00 PM)67% (Aug 16, 7:00 AM)29.98 "Hg (Aug 16, 7:00 AM)
Low55 °F (Aug 16, 7:00 AM)5% (Aug 24, 2:30 PM)29.62 "Hg (Aug 14, 2:00 AM)
Average84 °F20%29.80 "Hg
* Reported Aug 12 8:00 PM — Aug 27 8:30 PM, Shymkent, Weather by CustomWeather, © 2014

Note: Actual official high and low records may vary slightly from our data, if they occured in-between our weather recording intervals... More about our weather records

Advertising

Shymkent weather history for previous 24 hours

 ConditionsComfort  
Time TempWeatherWind HumidityBarometerVisibility
8:30 PM
Aug 27
84 °FClear.8 mph16%29.83 "Hg10 mi
8:00 PM86 °FClear.10 mph14%29.83 "Hg10 mi
7:30 PM88 °FClear.10 mph13%29.83 "Hg10 mi
7:00 PM90 °FSunny.10 mph13%29.83 "Hg10 mi
6:30 PM90 °FSunny.8 mph12%29.83 "Hg10 mi
6:00 PM91 °FSunny.6 mph11%29.83 "Hg10 mi
5:30 PM93 °FSunny.6 mph11%29.83 "Hg10 mi
5:00 PM93 °FSunny.13 mph12%29.83 "Hg10 mi
4:30 PM93 °FSunny.13 mph11%29.83 "Hg10 mi
4:00 PM93 °FSunny.13 mph11%29.83 "Hg10 mi
3:30 PM93 °FSunny.13 mph11%29.86 "Hg10 mi
3:00 PM93 °FPassing clouds.6 mph11%29.86 "HgN/A
2:30 PM93 °FPassing clouds.3 mph9%29.86 "HgN/A
2:00 PM91 °FSunny.1 mph9%29.86 "Hg10 mi
1:30 PM93 °FSunny.1 mph9%29.86 "Hg10 mi
1:00 PM91 °FSunny.1 mph10%29.89 "Hg10 mi
12:30 PM91 °FSunny.3 mph9%29.89 "Hg10 mi
12:00 PM90 °FSunny.3 mph13%29.89 "Hg10 mi
11:30 AM86 °FSunny.3 mph15%29.89 "Hg10 mi
11:00 AM82 °FPassing clouds.3 mph16%29.89 "HgN/A
10:30 AM81 °FPassing clouds.6 mph20%29.89 "HgN/A
10:00 AM77 °FPassing clouds.6 mph22%29.89 "HgN/A
9:30 AM75 °FPassing clouds.6 mph24%29.89 "HgN/A
9:00 AM72 °FSunny.6 mph29%29.89 "Hg10 mi
8:30 AM72 °FPassing clouds.3 mph29%29.89 "HgN/A
8:00 AM68 °FSunny.3 mph35%29.89 "Hg10 mi
7:30 AM66 °FSunny.1 mph35%29.89 "Hg10 mi
7:00 AM68 °FPassing clouds.3 mph30%29.89 "HgN/A
6:30 AM66 °FSunny.6 mph32%29.89 "Hg10 mi
6:00 AM68 °FSunny.10 mph28%29.89 "Hg10 mi
5:30 AM68 °FClear.10 mph28%29.89 "Hg10 mi
5:00 AM73 °FClear.10 mph23%29.89 "Hg10 mi
4:30 AM73 °FClear.8 mph22%29.89 "Hg10 mi
4:00 AM75 °FClear.8 mph21%29.89 "Hg10 mi
3:30 AM75 °FClear.10 mph21%29.89 "Hg10 mi
3:00 AM75 °FClear.10 mph21%29.89 "Hg10 mi
2:30 AM75 °FPassing clouds.13 mph19%29.89 "HgN/A
2:00 AM77 °FPassing clouds.13 mph18%29.92 "HgN/A
1:30 AM77 °FPassing clouds.8 mph18%29.92 "HgN/A
1:00 AM77 °FClear.10 mph19%29.92 "Hg10 mi
12:30 AM77 °FClear.10 mph19%29.92 "Hg10 mi
12:00 AM77 °FClear.10 mph18%29.92 "Hg10 mi
11:30 PM
Aug 26
77 °FClear.13 mph18%29.95 "Hg10 mi
11:00 PM77 °FClear.13 mph18%29.95 "Hg10 mi
10:30 PM81 °FClear.6 mph16%29.95 "Hg10 mi
10:00 PM81 °FClear.6 mph16%29.95 "Hg10 mi
9:30 PM81 °FClear.6 mph17%29.95 "Hg10 mi
9:00 PM82 °FClear.10 mph15%29.95 "Hg10 mi
Weather by CustomWeather, © 2014

See weather overviewHow to use our weather pages